Погода в Кирсанове

Погода в Кирсанове : погода сейчас, прогноз погоды и архив. Всё, что Вы хотите узнать о погоде в Кирсанове!

Хотите узнать прогноз погоды в Кирсанове? Тогда Вам сюда: Погода в Кирсанове

Поиск расширенной информации на нашем сайте:

Другие новости

Новости СМИ2

Главная страница сайта

Новости сайта

03.07.2017

Напоминаем, что на нашем специализированном сайте Метеоцентр.Азия вы можете получить высокодетализированные автоматические прогнозы погоды по пунктам России, СНГ и мира в авиационном формате (включающие направление и скорость ветра, видимость, явления погоды, количество и форму облачности, нижнюю и верхнюю границу облачности).


Погода в Кирсанове - сегодня

Время (UTC), дата Ветер
(°,м/с) 
Видим.   Явления Облачность Т
(°С)
Тd
(°С)
f(%) Тe
(°С)
Pmin
(гПа)
dP
(гПа)
Po
(мм)
O2
(г/м3)
Тmin Tmax R s Состояние
почвы
09 20.01.18 170 (Ю) 10 км  в посл. час снег  10/0 средняя 
[As op]
-8.3 -10.6 83 -11  1016.5  -0.1  746  311           
12 20.01.18 180 (Ю) 5-10  4000 м  слаб. снег  10/10 300 м 
[Frnb|Ns]
-7.8 -10.5 81 -12  1016.5  746  310           
15 20.01.18 180 (Ю) 10 км    10/10 600 м 
[Sc]
-7.3 -9.4 85 -11  1016.7  0.2  746  310    -7.2     
18 20.01.18 190 (Ю) 10 км    10/10 300 м 
[St]
-5.9 -7.4 89 -9  1016.7  0.1  746  308           
21 20.01.18 180 (Ю) 4000 м  слаб. снег  10/10 300 м 
[Frnb|Ns]
-5.1 -6.5 90 -6  1016.2  -0.3  746  307           
00 21.01.18 170 (Ю) 4000 м  слаб. снег  10/10 300 м 
[Frnb|Ns]
-5 -6.3 91 -6  1015.2  -1  745  307           
03 21.01.18 160 (Ю) 2000 м  снег  10/10 200 м 
[Frnb|Ns]
-5.7 -6.8 92 -7  1013.8  -1.6  744  307  -7.4    10  равномерный
сухой снег
100% 
06 21.01.18 170 (Ю) 2000 м  снег  10/10 200 м 
[Frnb|Ns]
-4.6 -5.5 93 -6  1012.9  -0.7  744  305           
09 21.01.18 160 (Ю) 4000 м  слаб. снег  10/10 300 м 
[Frnb|Ns]
-3.4 -4.5 92 -6  1011.6  -1.1  743  304           
12 21.01.18 160 (Ю) 4-10  4000 м  слаб. снег  10/10 300 м 
[Frnb|Ns]
-3.9 -5.1 91 -7  1009.6  -2.1  741  304           
15 21.01.18 160 (Ю) 3-11  2000 м  снег  10/10 200 м 
[Frnb|Ns]
-4.9 -5.9 93 -7  1007.2  -2.3  739  304    -3.2  12     
18 21.01.18 180 (Ю) 4-10  2000 м  снег  10/10 300 м 
[Frnb|Ns]
-4.4 -5.3 93 -8  1005.9  -1.3  738  303           
21 21.01.18 240 (ЮЗ) 4-10  10 км  позёмок{снег}  10/10 600 м 
[Sc]
-1.6 -2.7 92 -4  1008  2.2  740  300           
00 22.01.18 260 (З) 2-10  10 км  {снег}  10/10 300 м 
[St]
-4.3 -6.2 87 -6  1012.1  3.9  743  305           
03 22.01.18 280 (З) 10 км    10/10 300 м 
[St]
-5.2 -7.3 85 -7  1015.1  2.9  745  307  -5.3    27  равномерный
сухой снег
100% 
06 22.01.18 230 (ЮЗ) 10 км    10/10 1000 м 
[Sc]
-5.7 -7.1 90 -7  1016.9  1.6  746  308  -5.8         
09 22.01.18 200 (Ю) 10 км    10/10 1000 м 
[Sc]
-5.3 -7.1 87 -5  1018.4  1.6  748  308           
12 22.01.18 190 (Ю) 10 км    10/0 средняя 
[As op]
-5.2 -6.9 88 -7  1019.6  1.2  749  308           
15 22.01.18 тихо ()   4000 м  дымка  10/0 верхняя 
[Cs]
-8.7 -9.4 95 -9  1021.2  1.3  749  313    -5.1       
18 22.01.18 340 (С) 4000 м  в посл. час туман  10/10 300 м 
[St]
-7.1 -8 93 -7  1020.3  -0.8  749  311           
21 22.01.18 080 (В) 10 км    10/10 600 м 
[Sc]
-6.3 -7.5 91 -6  1020.8  0.5  749  310           
00 23.01.18 090 (В) 10 км    10/10 600 м 
[Sc]
-6.4 -8 88 -9  1020.9  0.1  749  310           
03 23.01.18 070 (В) 10 км    10/10 600 м 
[Sc]
-7.2 -8.9 88 -7  1020.6  -0.3  749  311  -9.5      26  равномерный
сухой снег
100% 
06 23.01.18 050 (СВ) 10 км    10/10 300 м 
[St]
-7.3 -9 88 -10  1020.1  -0.5  749  311           
09 23.01.18 070 (В) 10 км    10/10 300 м 
[St]
-5.8 -8 84 -8  1019.7  -0.4  748  309           
Время (UTC), дата Ветер
(°,м/с) 
Видим.   Явления Облачность Т
(°С)
Тd
(°С)
f(%) Тe
(°С)
Pmin
(гПа)
dP
(гПа)
Po
(мм)
O2
(г/м3)
Тmin Tmax R s Состояние
почвы

Для получения пояснительной информации подведите курсор к названию столбца.

ПОГОДА в Кирсанове - архив

Всё, что Вы хотите узнать о погоде в Кирсанове - удобно и подробно!

Выберите нужную дату (начиная с 1 января 2015* года) и нажмите кнопку "Найти".
Будут отображены архивные сводки погоды по пункту Кирсанов, начиная с указанной даты.


Отображать данные в формате CSV (для использования в таблицах Excel)


Внимание! Наш архив погоды предназначен исключительно для личного некоммерческого использования в познавательных целях. Если Вам необходимы официальные справки о состоянии погоды (для производственных, юридических, коммерческих и т.п. целей), обращайтесь в органы Росгидромета.

*Примечание: данная дата относится к архиву по метеостанциям СССР (Россия, СНГ, Балтия).
Архив по метеостанциям Зарубежной Европы и Азии (кроме Китая) хранится 10 дней, по другим регионам земного шара (Китай, Африка, Америка, Австралия, Океания) - 1 день.

Кирсанов - район местоположения метеостанции


Название, широта, долгота, высота метеостанции:
Кирсанов 52.7°ш. 42.7°д. 169 м над ур. моря [Российская Федерация]

Дополнительная информация

В oтличие oт бoльшинства пoгoдных сайтoв мы публикуем пoдрoбную метеoинфoрмацию в детальнoм прoфессиoнальнoм фoрмате.

Характеристики температуры и влажнoсти вoздуха измеряются на высoте 2 м в тени вдали oт зданий и деревьев.
Скoрoсть ветра измеряется на высoте 10 м (на урoвне рoста челoвека скoрoсть ветра ниже в 1.5-2 раза). Если метеoстанция нахoдится в гoрoде или в лесу, тo скoрoсть ветра занижена на 2-4 м/с пo сравнению с oткрытым местoм. Скoрoсть ветра над акватoриями крупных рек и oзёр, а также на вершинах хoлмoв на 2-5 м/с выше, чем в oбычных услoвиях.
Атмoсфернoе давление в разных тoчках местнoсти мoжет значительнo oтличаться oт давления на метеoстанции, в зависимoсти oт услoвий рельефа (при пoдъёме на 10 м давление пoнижается примернo на 1 мм рт.ст.).